Panama City, FL

5:37 AM CDT on May 28, 2017 (GMT -0500)
Northwest Florida Beaches International

Weather History for KECP - August, 2013

Change the Weather History Date:

Thursday, August 15, 2013

  Actual Average Record
Temperature  
Mean Temperature 81 °F -  
Max Temperature 87 °F - 93 °F (2011)
Min Temperature 75 °F - 73 °F (2011)
Degree Days  
Heating Degree Days 0    
Cooling Degree Days 16    
Growing Degree Days 30 (Base 50)    
Moisture  
Dew Point 74 °F    
Average Humidity 78    
Maximum Humidity 94    
Minimum Humidity 61    
Precipitation  
Precipitation 0.48 in - 0.88 in (2010)
Month to date precipitation  
Year to date precipitation  
Sea Level Pressure  
Sea Level Pressure 29.97 in    
Wind  
Wind Speed 4 mph (SW)    
Max Wind Speed 17 mph    
Max Gust Speed 22 mph    
Visibility 7 miles    
Events Rain , Thunderstorm    
T = Trace of Precipitation, MM = Missing Value Source: NWS Daily Summary

Daily Weather History Graph

Daily Weather History Graph

Search for Another Location

Airport or City:

Trip Planner

Search our weather history database for the weather conditions in past years. The results will help you decide how hot, cold, wet, or windy it might be!

Date:

Astronomy

Aug. 15, 2013 Rise Set
Actual Time 7:10 AM EDT 8:24 PM EDT
Civil Twilight 6:44 AM EDT 8:49 PM EDT
Nautical Twilight 6:14 AM EDT 9:19 PM EDT
Astronomical Twilight 5:43 AM EDT 9:50 PM EDT
Moon 3:33 PM EDT (8/15) 1:25 AM EDT (8/15)
Length of Visible Light 14h 04m
Length of Day
13h 14m
Waxing Gibbous, 64% of the Moon is Illuminated
Aug 15
Waxing Gibbous
Aug 20
Full
Aug 28
Last Quarter
Sep 5
New
Sep 12
First Quarter

Hourly Weather History & Observations

Time (EDT) Temp. Heat Index Dew Point Humidity Pressure Visibility Wind Dir Wind Speed Gust Speed Precip Events Conditions
12:53 AM 75.9 °F - 73.9 °F 94% 29.98 in 10.0 mi Calm Calm - N/A   Clear
1:53 AM 78.1 °F - 73.9 °F 87% 29.96 in 10.0 mi South 5.8 mph - N/A   Partly Cloudy
2:53 AM 78.1 °F - 73.9 °F 87% 29.95 in 10.0 mi Calm Calm - N/A   Clear
3:53 AM 77.0 °F - 73.9 °F 90% 29.94 in 10.0 mi Calm Calm - N/A   Clear
4:53 AM 75.9 °F - 73.9 °F 94% 29.94 in 10.0 mi Calm Calm - N/A   Clear
5:53 AM 75.9 °F - 73.0 °F 91% 29.94 in 10.0 mi Calm Calm - N/A   Clear
6:53 AM 75.0 °F - 73.0 °F 94% 29.95 in 10.0 mi Calm Calm - N/A   Partly Cloudy
7:14 AM 75.2 °F - 73.4 °F 94% 29.93 in 2.0 mi Calm Calm - 0.07 in Rain Heavy Rain
7:49 AM 75.2 °F - 73.4 °F 94% 29.94 in 2.0 mi NW 4.6 mph - 0.19 in Rain Light Rain
7:53 AM 75.9 °F - 73.9 °F 94% 29.97 in 2.0 mi NW 6.9 mph - 0.19 in   Overcast
8:07 AM 77.0 °F - 73.4 °F 89% 29.94 in 2.0 mi East 5.8 mph - N/A   Mostly Cloudy
8:14 AM 75.2 °F - 73.4 °F 94% 29.94 in 2.0 mi ENE 3.5 mph - N/A   Mostly Cloudy
8:18 AM 77.0 °F - 73.4 °F 89% 29.95 in 5.0 mi Calm Calm - N/A   Mostly Cloudy
8:53 AM 77.0 °F - 73.9 °F 90% 29.99 in 5.0 mi NNW 5.8 mph - N/A   Mostly Cloudy
9:40 AM 75.2 °F - 73.4 °F 94% 29.97 in 1.2 mi WSW 6.9 mph - 0.10 in Rain Heavy Rain
9:53 AM 75.9 °F - 73.0 °F 91% 30.00 in 5.0 mi Variable 4.6 mph - 0.19 in Rain Heavy Rain
10:34 AM 77.0 °F - 73.4 °F 89% 29.98 in 1.0 mi WSW 12.7 mph - 0.00 in   Mostly Cloudy
10:37 AM 77.0 °F - 73.4 °F 89% 29.98 in 1.0 mi WSW 13.8 mph - 0.00 in Rain , Thunderstorm Heavy Thunderstorms and Rain
10:53 AM 75.9 °F - 73.0 °F 91% 30.01 in 10.0 mi WNW 4.6 mph - 0.00 in Rain Light Rain
11:53 AM 78.1 °F - 73.9 °F 87% 30.02 in 10.0 mi Calm Calm - 0.09 in   Scattered Clouds
12:53 PM 81.0 °F 86.7 °F 75.0 °F 82% 30.00 in 10.0 mi West 3.5 mph - 0.01 in   Scattered Clouds
1:53 PM 86.0 °F 96.0 °F 75.9 °F 72% 29.99 in 10.0 mi South 10.4 mph - N/A   Scattered Clouds
2:53 PM 86.0 °F 92.2 °F 72.0 °F 63% 29.96 in 10.0 mi SSW 9.2 mph - N/A   Mostly Cloudy
3:53 PM 86.0 °F 93.8 °F 73.9 °F 67% 29.95 in 10.0 mi SSW 10.4 mph - N/A   Mostly Cloudy
4:53 PM 84.9 °F 92.1 °F 73.9 °F 69% 29.96 in 10.0 mi SE 9.2 mph - N/A   Scattered Clouds
5:53 PM 84.9 °F 91.4 °F 73.0 °F 67% 29.95 in 10.0 mi SSW 10.4 mph - N/A   Scattered Clouds
6:53 PM 84.0 °F 90.2 °F 73.0 °F 69% 29.96 in 10.0 mi SSW 10.4 mph - N/A   Scattered Clouds
7:53 PM 82.0 °F 87.9 °F 73.9 °F 76% 29.96 in 10.0 mi South 6.9 mph - N/A   Scattered Clouds
8:53 PM 81.0 °F 86.2 °F 73.9 °F 79% 29.97 in 10.0 mi South 4.6 mph - N/A   Scattered Clouds
9:53 PM 79.0 °F - 73.9 °F 84% 29.99 in 10.0 mi South 3.5 mph - N/A   Scattered Clouds
10:53 PM 80.1 °F 85.1 °F 75.0 °F 85% 30.00 in 10.0 mi Calm Calm - N/A   Clear
11:53 PM 78.1 °F - 75.0 °F 90% 30.00 in 10.0 mi Calm Calm - N/A   Partly Cloudy